Time,TemperatureF,DewpointF,PressureIn,WindDirection,WindDirectionDegrees,WindSpeedMPH,WindSpeedGustMPH,Humidity,HourlyPrecipIn,Conditions,Clouds,dailyrainin,SoftwareType,DateUTC
2013-05-06 00:01:00,58.0,47.0,29.85,SSE,154,2.0,7.0,68,0.00,,,0.00,,2013-05-06 07:01:00,
2013-05-06 00:11:00,58.0,47.0,29.85,SSE,154,2.0,7.0,68,0.00,,,0.00,,2013-05-06 07:11:00,
2013-05-06 00:22:00,57.0,47.0,29.86,NNE,22,1.0,5.0,68,0.00,,,0.00,,2013-05-06 07:22:00,
2013-05-06 00:31:00,56.0,47.0,29.85,NNE,30,0.0,4.0,71,0.00,,,0.00,,2013-05-06 07:31:00,
2013-05-06 00:41:00,56.0,47.0,29.85,NNE,30,0.0,4.0,71,0.00,,,0.00,,2013-05-06 07:41:00,
2013-05-06 00:52:00,56.0,47.0,29.86,NNE,32,0.0,3.0,72,0.00,,,0.00,,2013-05-06 07:52:00,
2013-05-06 01:01:00,55.0,47.0,29.86,East,88,0.0,3.0,74,0.00,,,0.00,,2013-05-06 08:01:00,
2013-05-06 01:12:00,55.0,47.0,29.86,East,88,0.0,3.0,74,0.00,,,0.00,,2013-05-06 08:12:00,
2013-05-06 01:22:00,55.0,47.0,29.86,NE,51,0.0,4.0,74,0.00,,,0.00,,2013-05-06 08:22:00,
2013-05-06 01:31:00,55.0,47.0,29.86,SE,140,1.0,6.0,74,0.00,,,0.00,,2013-05-06 08:31:00,
2013-05-06 01:41:00,55.0,47.0,29.86,SE,140,1.0,6.0,74,0.00,,,0.00,,2013-05-06 08:41:00,
2013-05-06 01:52:00,54.0,47.0,29.86,East,84,0.0,5.0,77,0.00,,,0.00,,2013-05-06 08:52:00,
2013-05-06 02:01:00,54.0,47.0,29.87,NW,310,1.0,6.0,78,0.00,,,0.00,,2013-05-06 09:01:00,
2013-05-06 02:11:00,54.0,47.0,29.87,NW,310,1.0,6.0,78,0.00,,,0.00,,2013-05-06 09:11:00,
2013-05-06 02:22:00,54.0,47.0,29.87,SSE,163,1.0,8.0,77,0.00,,,0.00,,2013-05-06 09:22:00,
2013-05-06 02:32:00,54.0,47.0,29.87,North,355,1.0,5.0,78,0.00,,,0.00,,2013-05-06 09:32:00,
2013-05-06 02:42:00,54.0,47.0,29.87,North,355,1.0,5.0,78,0.00,,,0.00,,2013-05-06 09:42:00,
2013-05-06 02:53:00,54.0,48.0,29.88,ENE,63,1.0,6.0,80,0.00,,,0.00,,2013-05-06 09:53:00,
2013-05-06 03:02:00,54.0,48.0,29.88,NNW,340,1.0,4.0,79,0.00,,,0.00,,2013-05-06 10:02:00,
2013-05-06 03:12:00,54.0,48.0,29.88,NNW,340,1.0,4.0,79,0.00,,,0.00,,2013-05-06 10:12:00,
2013-05-06 03:22:00,54.0,48.0,29.88,NNE,32,1.0,6.0,80,0.00,,,0.00,,2013-05-06 10:22:00,
2013-05-06 03:32:00,54.0,48.0,29.88,North,5,3.0,5.0,79,0.00,,,0.00,,2013-05-06 10:32:00,
2013-05-06 03:41:00,54.0,48.0,29.88,North,5,3.0,5.0,79,0.00,,,0.00,,2013-05-06 10:41:00,
2013-05-06 03:52:00,54.0,48.0,29.88,ESE,105,1.0,7.0,79,0.00,,,0.00,,2013-05-06 10:52:00,
2013-05-06 04:02:00,53.0,47.0,29.88,ESE,110,2.0,5.0,81,0.00,,,0.00,,2013-05-06 11:02:00,
2013-05-06 04:11:00,53.0,47.0,29.88,ESE,110,2.0,5.0,81,0.00,,,0.00,,2013-05-06 11:11:00,
2013-05-06 04:22:00,54.0,48.0,29.89,East,101,2.0,8.0,81,0.00,,,0.00,,2013-05-06 11:22:00,
2013-05-06 04:31:00,54.0,48.0,29.89,ESE,111,2.0,6.0,79,0.00,,,0.00,,2013-05-06 11:31:00,
2013-05-06 04:42:00,54.0,48.0,29.89,ESE,111,2.0,6.0,79,0.00,,,0.00,,2013-05-06 11:42:00,
2013-05-06 04:52:00,54.0,48.0,29.89,ENE,61,1.0,8.0,80,0.00,,,0.00,,2013-05-06 11:52:00,
2013-05-06 05:01:00,53.0,48.0,29.89,ESE,114,3.0,9.0,82,0.00,,,0.00,,2013-05-06 12:01:00,
2013-05-06 05:12:00,53.0,48.0,29.89,ESE,114,3.0,9.0,82,0.00,,,0.00,,2013-05-06 12:12:00,
2013-05-06 05:21:00,53.0,47.0,29.89,ESE,109,1.0,7.0,80,0.00,,,0.00,,2013-05-06 12:21:00,
2013-05-06 05:32:00,53.0,47.0,29.89,North,355,2.0,7.0,81,0.00,,,0.00,,2013-05-06 12:32:00,
2013-05-06 05:41:00,53.0,47.0,29.89,North,355,2.0,7.0,81,0.00,,,0.00,,2013-05-06 12:41:00,
2013-05-06 05:51:00,52.0,47.0,29.89,ENE,57,1.0,8.0,83,0.00,,,0.00,,2013-05-06 12:51:00,
2013-05-06 06:01:00,53.0,48.0,29.89,SE,144,4.0,7.0,83,0.00,,,0.00,,2013-05-06 13:01:00,
2013-05-06 06:11:00,53.0,48.0,29.89,SE,144,4.0,7.0,83,0.00,,,0.00,,2013-05-06 13:11:00,
2013-05-06 06:21:00,53.0,48.0,29.90,NE,48,3.0,8.0,83,0.00,,,0.00,,2013-05-06 13:21:00,
2013-05-06 06:31:00,53.0,48.0,29.90,NE,45,2.0,8.0,83,0.00,,,0.00,,2013-05-06 13:31:00,
2013-05-06 06:42:00,53.0,48.0,29.90,NE,45,2.0,8.0,83,0.00,,,0.00,,2013-05-06 13:42:00,
2013-05-06 06:52:00,52.0,47.0,29.90,East,81,5.0,7.0,83,0.00,,,0.00,,2013-05-06 13:52:00,
2013-05-06 07:01:00,52.0,47.0,29.90,East,90,2.0,7.0,82,0.00,,,0.00,,2013-05-06 14:01:00,
2013-05-06 07:11:00,52.0,47.0,29.90,East,90,2.0,7.0,82,0.00,,,0.00,,2013-05-06 14:11:00,
2013-05-06 07:21:00,52.0,47.0,29.90,SE,140,3.0,6.0,83,0.00,,,0.00,,2013-05-06 14:21:00,
2013-05-06 07:32:00,53.0,48.0,29.90,East,94,2.0,10.0,82,0.00,,,0.00,,2013-05-06 14:32:00,
2013-05-06 07:42:00,53.0,48.0,29.90,East,94,2.0,10.0,82,0.00,,,0.00,,2013-05-06 14:42:00,
2013-05-06 07:51:00,53.0,48.0,29.90,ENE,69,4.0,7.0,82,0.00,,,0.00,,2013-05-06 14:51:00,
2013-05-06 08:01:00,54.0,48.0,29.90,ENE,57,2.0,6.0,81,0.00,,,0.00,,2013-05-06 15:01:00,
2013-05-06 08:11:00,54.0,48.0,29.90,ENE,57,2.0,6.0,81,0.00,,,0.00,,2013-05-06 15:11:00,
2013-05-06 08:21:00,55.0,49.0,29.91,East,91,2.0,7.0,79,0.00,,,0.00,,2013-05-06 15:21:00,
2013-05-06 08:33:00,57.0,50.0,29.91,East,84,1.0,4.0,78,0.00,,,0.00,,2013-05-06 15:33:00,
2013-05-06 08:42:00,57.0,50.0,29.91,East,84,1.0,4.0,78,0.00,,,0.00,,2013-05-06 15:42:00,
2013-05-06 08:53:00,57.0,50.0,29.91,East,82,0.0,7.0,76,0.00,,,0.00,,2013-05-06 15:53:00,
2013-05-06 09:03:00,59.0,51.0,29.92,West,262,2.0,6.0,75,0.00,,,0.00,,2013-05-06 16:03:00,
2013-05-06 09:13:00,59.0,51.0,29.92,West,262,2.0,6.0,75,0.00,,,0.00,,2013-05-06 16:13:00,
2013-05-06 09:22:00,59.0,51.0,29.92,West,268,2.0,7.0,74,0.00,,,0.00,,2013-05-06 16:22:00,
2013-05-06 09:32:00,59.0,51.0,29.92,West,268,2.0,7.0,74,0.00,,,0.00,,2013-05-06 16:32:00,
2013-05-06 09:41:00,59.0,51.0,29.92,West,268,2.0,7.0,74,0.00,,,0.00,,2013-05-06 16:41:00,
2013-05-06 09:52:00,59.0,51.0,29.93,West,271,2.0,7.0,75,0.00,,,0.00,,2013-05-06 16:52:00,
2013-05-06 10:02:00,59.0,51.0,29.94,West,265,4.0,7.0,74,0.00,,,0.00,,2013-05-06 17:02:00,
2013-05-06 10:12:00,59.0,51.0,29.94,West,265,4.0,7.0,74,0.00,,,0.00,,2013-05-06 17:12:00,
2013-05-06 10:23:00,60.0,51.0,29.94,SW,223,3.0,9.0,73,0.00,,,0.00,,2013-05-06 17:23:00,
2013-05-06 10:31:00,60.0,51.0,29.94,WSW,248,4.0,8.0,73,0.00,,,0.00,,2013-05-06 17:31:00,
2013-05-06 10:42:00,60.0,51.0,29.94,WSW,248,4.0,8.0,73,0.00,,,0.00,,2013-05-06 17:42:00,
2013-05-06 10:52:00,60.0,52.0,29.94,West,279,3.0,13.0,74,0.00,,,0.00,,2013-05-06 17:52:00,
2013-05-06 11:01:00,59.0,51.0,29.95,WSW,246,4.0,9.0,75,0.00,,,0.00,,2013-05-06 18:01:00,
2013-05-06 11:11:00,59.0,51.0,29.95,WSW,246,4.0,9.0,75,0.00,,,0.00,,2013-05-06 18:11:00,
2013-05-06 11:21:00,59.0,51.0,29.95,WSW,251,5.0,8.0,76,0.00,,,0.00,,2013-05-06 18:21:00,
2013-05-06 11:31:00,59.0,51.0,29.95,WSW,254,4.0,9.0,75,0.00,,,0.00,,2013-05-06 18:31:00,
2013-05-06 11:43:00,59.0,51.0,29.95,WSW,254,4.0,9.0,75,0.00,,,0.00,,2013-05-06 18:43:00,
2013-05-06 11:52:00,59.0,51.0,29.96,West,270,4.0,10.0,75,0.00,,,0.00,,2013-05-06 18:52:00,
2013-05-06 12:01:00,59.0,51.0,29.95,SW,233,3.0,9.0,76,0.00,,,0.00,,2013-05-06 19:01:00,
2013-05-06 12:11:00,59.0,51.0,29.95,SW,233,3.0,9.0,76,0.00,,,0.00,,2013-05-06 19:11:00,
2013-05-06 12:22:00,59.0,51.0,29.95,West,271,4.0,9.0,76,0.00,,,0.00,,2013-05-06 19:22:00,
2013-05-06 12:32:00,59.0,51.0,29.95,West,268,4.0,12.0,76,0.00,,,0.00,,2013-05-06 19:32:00,
2013-05-06 12:41:00,59.0,51.0,29.95,West,268,4.0,12.0,76,0.00,,,0.00,,2013-05-06 19:41:00,
2013-05-06 12:52:00,59.0,51.0,29.95,West,268,4.0,12.0,76,0.00,,,0.00,,2013-05-06 19:52:00,
2013-05-06 13:01:00,59.0,51.0,29.94,West,259,4.0,10.0,76,0.00,,,0.00,,2013-05-06 20:01:00,
2013-05-06 13:11:00,59.0,51.0,29.94,West,259,4.0,10.0,76,0.00,,,0.00,,2013-05-06 20:11:00,
2013-05-06 13:21:00,59.0,52.0,29.94,WSW,248,4.0,8.0,77,0.00,,,0.00,,2013-05-06 20:21:00,
2013-05-06 13:32:00,60.0,53.0,29.94,West,273,3.0,7.0,77,0.00,,,0.00,,2013-05-06 20:32:00,
2013-05-06 13:41:00,60.0,53.0,29.94,West,273,3.0,7.0,77,0.00,,,0.00,,2013-05-06 20:41:00,
2013-05-06 13:52:00,60.0,53.0,29.94,WSW,252,4.0,8.0,78,0.00,,,0.00,,2013-05-06 20:52:00,
2013-05-06 14:01:00,60.0,53.0,29.94,West,277,3.0,9.0,78,0.00,,,0.00,,2013-05-06 21:01:00,
2013-05-06 14:11:00,60.0,53.0,29.94,West,277,3.0,9.0,78,0.00,,,0.00,,2013-05-06 21:11:00,
2013-05-06 14:21:00,60.0,53.0,29.94,WNW,283,4.0,9.0,77,0.00,,,0.00,,2013-05-06 21:21:00,
2013-05-06 14:32:00,60.0,53.0,29.94,SW,227,2.0,6.0,78,0.00,,,0.00,,2013-05-06 21:32:00,
2013-05-06 14:42:00,60.0,53.0,29.94,SW,227,2.0,6.0,78,0.00,,,0.00,,2013-05-06 21:42:00,
2013-05-06 14:53:00,59.0,52.0,29.93,WSW,254,4.0,7.0,77,0.00,,,0.00,,2013-05-06 21:53:00,
2013-05-06 15:03:00,59.0,52.0,29.93,WSW,244,4.0,6.0,79,0.00,,,0.00,,2013-05-06 22:03:00,
2013-05-06 15:12:00,59.0,52.0,29.93,WSW,244,4.0,6.0,79,0.00,,,0.00,,2013-05-06 22:12:00,
2013-05-06 15:22:00,60.0,53.0,29.93,West,275,5.0,8.0,79,0.00,,,0.00,,2013-05-06 22:22:00,
2013-05-06 15:33:00,60.0,53.0,29.92,West,263,4.0,7.0,78,0.00,,,0.00,,2013-05-06 22:33:00,
2013-05-06 15:45:00,60.0,53.0,29.92,West,263,4.0,7.0,78,0.00,,,0.00,,2013-05-06 22:45:00,
2013-05-06 15:52:00,59.0,53.0,29.92,WNW,284,5.0,9.0,80,0.00,,,0.00,,2013-05-06 22:52:00,
2013-05-06 16:02:00,58.0,52.0,29.92,WSW,250,4.0,8.0,79,0.00,,,0.00,,2013-05-06 23:02:00,
2013-05-06 16:11:00,58.0,52.0,29.92,WSW,250,4.0,8.0,79,0.00,,,0.00,,2013-05-06 23:11:00,
2013-05-06 16:22:00,58.0,52.0,29.92,West,279,6.0,10.0,81,0.00,,,0.00,,2013-05-06 23:22:00,
2013-05-06 16:31:00,57.0,52.0,29.92,WNW,286,5.0,9.0,83,0.00,,,0.00,,2013-05-06 23:31:00,
2013-05-06 16:41:00,57.0,52.0,29.92,WNW,286,5.0,9.0,83,0.00,,,0.00,,2013-05-06 23:41:00,
2013-05-06 16:52:00,57.0,52.0,29.91,West,268,4.0,7.0,84,0.00,,,0.00,,2013-05-06 23:52:00,
2013-05-06 17:01:00,57.0,53.0,29.91,West,275,5.0,7.0,85,0.00,,,0.00,,2013-05-07 00:01:00,
2013-05-06 17:11:00,57.0,53.0,29.91,West,275,5.0,7.0,85,0.00,,,0.00,,2013-05-07 00:11:00,
2013-05-06 17:21:00,56.0,52.0,29.91,West,271,5.0,8.0,86,0.00,,,0.00,,2013-05-07 00:21:00,
2013-05-06 17:31:00,55.0,51.0,29.91,West,263,6.0,8.0,87,0.00,,,0.00,,2013-05-07 00:31:00,
2013-05-06 17:41:00,55.0,51.0,29.91,West,263,6.0,8.0,87,0.00,,,0.00,,2013-05-07 00:41:00,
2013-05-06 17:51:00,54.0,51.0,29.92,West,271,5.0,8.0,88,0.00,,,0.00,,2013-05-07 00:51:00,
2013-05-06 18:01:00,54.0,51.0,29.91,West,267,4.0,9.0,89,0.00,,,0.00,,2013-05-07 01:01:00,
2013-05-06 18:11:00,54.0,51.0,29.91,West,267,4.0,9.0,89,0.00,,,0.00,,2013-05-07 01:11:00,
2013-05-06 18:21:00,53.0,50.0,29.91,West,274,5.0,8.0,89,0.00,,,0.00,,2013-05-07 01:21:00,
2013-05-06 18:31:00,53.0,50.0,29.91,West,268,3.0,8.0,90,0.00,,,0.00,,2013-05-07 01:31:00,
2013-05-06 18:42:00,53.0,50.0,29.91,West,268,3.0,8.0,90,0.00,,,0.00,,2013-05-07 01:42:00,
2013-05-06 18:52:00,53.0,50.0,29.92,WSW,246,3.0,6.0,91,0.00,,,0.00,,2013-05-07 01:52:00,
2013-05-06 19:02:00,53.0,50.0,29.92,West,261,3.0,6.0,91,0.00,,,0.00,,2013-05-07 02:02:00,
2013-05-06 19:11:00,53.0,50.0,29.92,West,261,3.0,6.0,91,0.00,,,0.00,,2013-05-07 02:11:00,
2013-05-06 19:21:00,53.0,50.0,29.91,West,275,1.0,6.0,91,0.00,,,0.00,,2013-05-07 02:21:00,
2013-05-06 19:31:00,53.0,50.0,29.92,SW,234,3.0,9.0,91,0.00,,,0.00,,2013-05-07 02:31:00,
2013-05-06 19:41:00,53.0,50.0,29.92,SW,234,3.0,9.0,91,0.00,,,0.00,,2013-05-07 02:41:00,
2013-05-06 19:51:00,53.0,50.0,29.91,West,272,4.0,8.0,91,0.00,,,0.00,,2013-05-07 02:51:00,
2013-05-06 20:01:00,52.0,49.0,29.92,West,272,3.0,7.0,91,0.00,,,0.00,,2013-05-07 03:01:00,
2013-05-06 20:11:00,52.0,49.0,29.92,West,272,3.0,7.0,91,0.00,,,0.00,,2013-05-07 03:11:00,
2013-05-06 20:21:00,52.0,49.0,29.93,West,263,3.0,7.0,91,0.00,,,0.00,,2013-05-07 03:21:00,
2013-05-06 20:32:00,52.0,49.0,29.93,WSW,252,4.0,7.0,91,0.00,,,0.00,,2013-05-07 03:32:00,
2013-05-06 20:42:00,52.0,49.0,29.93,WSW,252,4.0,7.0,91,0.00,,,0.00,,2013-05-07 03:42:00,
2013-05-06 20:53:00,52.0,49.0,29.94,WSW,244,3.0,8.0,91,0.00,,,0.00,,2013-05-07 03:53:00,
2013-05-06 21:02:00,52.0,49.0,29.95,West,259,4.0,12.0,91,0.00,,,0.00,,2013-05-07 04:02:00,
2013-05-06 21:12:00,52.0,49.0,29.95,West,259,4.0,12.0,91,0.00,,,0.00,,2013-05-07 04:12:00,
2013-05-06 21:23:00,53.0,50.0,29.96,SSW,192,4.0,13.0,91,0.00,,,0.00,,2013-05-07 04:23:00,
2013-05-06 21:33:00,53.0,50.0,29.96,South,173,6.0,11.0,91,0.00,,,0.00,,2013-05-07 04:33:00,
2013-05-06 21:42:00,53.0,50.0,29.96,South,173,6.0,11.0,91,0.00,,,0.00,,2013-05-07 04:42:00,
2013-05-06 21:52:00,53.0,50.0,29.96,SSW,202,2.0,7.0,90,0.00,,,0.00,,2013-05-07 04:52:00,
2013-05-06 22:02:00,53.0,50.0,29.96,SW,225,2.0,10.0,90,0.00,,,0.00,,2013-05-07 05:02:00,
2013-05-06 22:12:00,53.0,50.0,29.96,SW,225,2.0,10.0,90,0.00,,,0.00,,2013-05-07 05:12:00,
2013-05-06 22:22:00,53.0,50.0,29.97,West,276,5.0,10.0,90,0.00,,,0.00,,2013-05-07 05:22:00,
2013-05-06 22:32:00,53.0,50.0,29.97,WNW,296,2.0,12.0,89,0.00,,,0.00,,2013-05-07 05:32:00,
2013-05-06 22:42:00,53.0,50.0,29.97,WNW,296,2.0,12.0,89,0.00,,,0.00,,2013-05-07 05:42:00,
2013-05-06 22:51:00,53.0,50.0,29.98,West,276,3.0,8.0,89,0.00,,,0.00,,2013-05-07 05:51:00,
2013-05-06 23:02:00,53.0,50.0,29.98,West,277,3.0,8.0,89,0.00,,,0.00,,2013-05-07 06:02:00,
2013-05-06 23:11:00,53.0,50.0,29.98,West,277,3.0,8.0,89,0.00,,,0.00,,2013-05-07 06:11:00,
2013-05-06 23:21:00,53.0,50.0,29.98,West,265,2.0,9.0,89,0.00,,,0.00,,2013-05-07 06:21:00,
2013-05-06 23:32:00,53.0,50.0,29.98,East,86,2.0,8.0,89,0.00,,,0.00,,2013-05-07 06:32:00,
2013-05-06 23:41:00,53.0,50.0,29.98,East,86,2.0,8.0,89,0.00,,,0.00,,2013-05-07 06:41:00,
2013-05-06 23:52:00,53.0,50.0,29.98,NNE,28,1.0,10.0,88,0.00,,,0.00,,2013-05-07 06:52:00,